Weather History for KCHA - January, 2013

Change the Weather History Date:

Monday, January 14, 2013

  Actual Average Record
Temperature  
Mean Temperature 48 °F 40 °F  
Max Temperature 56 °F 50 °F 75 °F (1907)
Min Temperature 39 °F 30 °F 9 °F (1893)
Degree Days  
Heating Degree Days 17 25  
Month to date heating degree days 228 350  
Since 1 July heating degree days 1367 1634  
Cooling Degree Days 0 0  
Month to date cooling degree days 2 0  
Year to date cooling degree days 2 0  
Moisture  
Dew Point 43 °F    
Average Humidity 95    
Maximum Humidity 100    
Minimum Humidity 89    
Precipitation  
Precipitation 2.14 in 0.16 in 2.44 in (1999)
Month to date precipitation 5.24 2.19  
Year to date precipitation 5.24 2.19  
Snow  
Snow 0.00 in 0.00 in - ()
Month to date snowfall 0.0 0.7  
Since 1 July snowfall T 1.0  
Snow Depth 0.00 in    
Sea Level Pressure  
Sea Level Pressure 30.17 in    
Wind  
Wind Speed 9 mph (North)    
Max Wind Speed 15 mph    
Max Gust Speed 18 mph    
Visibility 4 miles    
Events Rain    
T = Trace of Precipitation, MM = Missing Value Source: NWS Daily Summary

Daily Weather History Graph

Daily Weather History Graph

Search for Another Location

Airport or City:

Trip Planner

Search our weather history database for the weather conditions in past years. The results will help you decide how hot, cold, wet, or windy it might be!

Date:

Astronomy

Jan. 14, 2013 Rise Set
Actual Time 7:48 AM EST 5:51 PM EST
Civil Twilight 7:21 AM EST 6:19 PM EST
Nautical Twilight 6:49 AM EST 6:50 PM EST
Astronomical Twilight 6:19 AM EST 7:20 PM EST
Moon 9:30 AM EST (1/14) 9:26 PM EST (1/14)
Length of Visible Light 10h 58m
Length of Day
10h 03m
Waxing Crescent, 11% of the Moon is Illuminated
Jan 14
Waxing Crescent
Jan 18
First Quarter
Jan 26
Full
Feb 3
Last Quarter
Feb 10
New

Hourly Weather History & Observations

Time (EST) Temp. Windchill Dew Point Humidity Pressure Visibility Wind Dir Wind Speed Gust Speed Precip Events Conditions
12:26 AM 53.6 °F - 51.8 °F 94% 30.08 in 9.0 mi North 10.4 mph - 0.00 in   Overcast
12:53 AM 51.8 °F - 48.2 °F 88% 30.09 in 10.0 mi North 8.1 mph - N/A   Overcast
1:40 AM 48.2 °F - 44.6 °F 87% 30.10 in 7.0 mi North 10.4 mph - N/A Rain Light Rain
1:53 AM 48.0 °F - 45.0 °F 89% 30.10 in 7.0 mi North 10.4 mph - 0.00 in Rain Light Rain
2:06 AM 46.4 °F 41.9 °F 46.4 °F 100% 30.10 in 1.8 mi North 9.2 mph - 0.02 in Rain Rain
2:21 AM 46.4 °F 41.9 °F 44.6 °F 93% 30.11 in 3.0 mi North 9.2 mph - 0.04 in Rain Light Rain
2:31 AM 46.4 °F 41.9 °F 46.4 °F 100% 30.11 in 2.0 mi North 9.2 mph - 0.05 in Rain Light Rain
2:42 AM 46.4 °F 41.1 °F 44.6 °F 93% 30.12 in 2.0 mi North 11.5 mph - N/A Rain Heavy Rain
2:53 AM 46.0 °F 41.9 °F 45.0 °F 96% 30.12 in 2.5 mi North 8.1 mph - 0.10 in Rain Rain
3:53 AM 46.0 °F 42.5 °F 44.1 °F 93% 30.12 in 2.0 mi North 6.9 mph - 0.12 in Rain Rain
4:11 AM 46.4 °F 42.9 °F 44.6 °F 93% 30.13 in 4.0 mi North 6.9 mph - 0.01 in Rain Light Rain
4:26 AM 46.4 °F 43.5 °F 44.6 °F 93% 30.13 in 4.0 mi North 5.8 mph - N/A Rain Light Rain
4:50 AM 46.4 °F 43.5 °F 44.6 °F 93% 30.13 in 2.0 mi North 5.8 mph - 0.02 in Rain Light Rain
4:53 AM 46.0 °F 42.5 °F 45.0 °F 96% 30.13 in 2.0 mi North 6.9 mph - 0.02 in Rain Light Rain
5:53 AM 45.0 °F 39.7 °F 44.1 °F 97% 30.13 in 2.0 mi NNE 10.4 mph - 0.00 in Rain Light Rain
6:04 AM 44.6 °F 39.7 °F 42.8 °F 93% 30.14 in 3.0 mi North 9.2 mph - 0.00 in   Light Drizzle
6:43 AM 44.6 °F 38.4 °F 42.8 °F 93% 30.16 in 2.5 mi North 12.7 mph - 0.00 in Rain Light Rain
6:53 AM 44.6 °F 38.1 °F 42.8 °F 93% 30.15 in 1.8 mi North 13.8 mph - N/A Rain Light Rain
7:32 AM 44.6 °F 40.2 °F 42.8 °F 93% 30.17 in 3.0 mi North 8.1 mph - 0.04 in Rain Light Rain
7:53 AM 44.1 °F 38.1 °F 43.0 °F 96% 30.19 in 3.0 mi North 11.5 mph - 0.08 in Rain Light Rain
7:54 AM 44.6 °F 39.2 °F 42.8 °F 93% 30.19 in 1.5 mi North 10.4 mph - 0.00 in Rain Rain
8:24 AM 44.6 °F 40.7 °F 42.8 °F 93% 30.19 in 4.0 mi NNW 6.9 mph - 0.09 in Rain Light Rain
8:51 AM 44.6 °F 39.2 °F 42.8 °F 93% 30.21 in 4.0 mi NNW 10.4 mph - 0.10 in   Overcast
8:53 AM 44.1 °F 39.0 °F 43.0 °F 96% 30.20 in 4.0 mi NNW 9.2 mph - 0.10 in Rain Light Rain
9:16 AM 44.6 °F 40.2 °F 42.8 °F 93% 30.21 in 1.5 mi North 8.1 mph - 0.01 in Rain Light Rain
9:53 AM 44.1 °F 39.5 °F 43.0 °F 96% 30.22 in 10.0 mi North 8.1 mph - 0.07 in   Overcast
10:05 AM 44.6 °F 41.4 °F 42.8 °F 93% 30.20 in 2.0 mi NNE 5.8 mph - 0.02 in Rain Heavy Rain
10:36 AM 44.6 °F 38.8 °F 42.8 °F 93% 30.20 in 6.0 mi North 11.5 mph - 0.03 in   Overcast
10:49 AM 44.6 °F 39.2 °F 42.8 °F 93% 30.21 in 7.0 mi North 10.4 mph - 0.03 in   Overcast
10:53 AM 44.1 °F 38.6 °F 43.0 °F 96% 30.20 in 7.0 mi North 10.4 mph - 0.03 in   Overcast
11:11 AM 44.6 °F 39.2 °F 42.8 °F 93% 30.21 in 7.0 mi North 10.4 mph - 0.00 in Rain Light Rain
11:33 AM 44.6 °F 38.4 °F 42.8 °F 93% 30.19 in 2.0 mi North 12.7 mph - 0.02 in Rain Rain
11:53 AM 44.1 °F 39.5 °F 43.0 °F 96% 30.18 in 2.0 mi North 8.1 mph - 0.06 in Rain Rain
12:53 PM 44.1 °F 37.7 °F 43.0 °F 96% 30.14 in 2.0 mi North 12.7 mph - 0.09 in Rain Rain
1:53 PM 44.6 °F 39.7 °F 42.8 °F 93% 30.11 in 2.0 mi NNE 9.2 mph - N/A Rain Light Rain
2:53 PM 45.0 °F 42.6 °F 44.1 °F 97% 30.14 in 2.0 mi North 4.6 mph - 0.08 in Rain Rain
3:53 PM 45.0 °F 40.1 °F 44.1 °F 97% 30.17 in 2.0 mi North 9.2 mph - 0.17 in Rain Heavy Rain
4:53 PM 44.1 °F 37.1 °F 42.1 °F 93% 30.21 in 2.0 mi North 15.0 mph - 0.22 in Rain Heavy Rain
5:19 PM 42.8 °F 35.8 °F 42.8 °F 100% 30.21 in 2.0 mi North 13.8 mph - 0.15 in Rain Heavy Rain
5:53 PM 41.0 °F 35.2 °F 39.9 °F 96% 30.26 in 2.0 mi North 9.2 mph - 0.23 in Rain Light Rain
6:46 PM 39.2 °F 32.0 °F 39.2 °F 100% 30.27 in 5.0 mi North 11.5 mph - 0.10 in Rain Rain
6:53 PM 39.9 °F 32.9 °F 39.0 °F 97% 30.27 in 5.0 mi North 11.5 mph - 0.12 in Rain Heavy Rain
7:53 PM 39.0 °F 31.4 °F 37.9 °F 96% 30.26 in 5.0 mi North 12.7 mph - 0.18 in Rain Rain
8:18 PM 39.2 °F 31.6 °F 37.4 °F 93% 30.25 in 3.0 mi North 12.7 mph - 0.06 in Rain Rain
8:53 PM 39.0 °F 32.8 °F 37.9 °F 96% 30.24 in 4.0 mi North 9.2 mph - 0.16 in Rain Rain
9:18 PM 39.2 °F 33.6 °F 37.4 °F 93% 30.23 in 4.0 mi North 8.1 mph - 0.07 in Rain Rain
9:53 PM 39.9 °F 35.1 °F 39.0 °F 97% 30.22 in 4.0 mi NNE 6.9 mph - 0.12 in Rain Rain
10:53 PM 39.9 °F 33.9 °F 39.0 °F 97% 30.20 in 6.0 mi North 9.2 mph - 0.04 in Rain Light Rain
11:53 PM 39.9 °F 35.8 °F 39.0 °F 97% 30.17 in 8.0 mi North 5.8 mph - 0.03 in   Overcast